Location: Borovka
(49.7741°N, 14.5280°E)
Time: 02:16:36
(UTC+00:00)

BlueWalker 3 - Pass Details

Date: 21 January 2026
Orbit: 451 x 461 km, 53.2° (Epoch: 13 February)

Event Time Altitude Azimuth Distance (km) Brightness Sun altitude
Rises 18:58:47 0° 245° (WSW) 2,450 6.2 -31.9°
Reaches altitude 10° 19:00:55 10° 246° (WSW) 1,580 5.1 -32.2°
Enters shadow 19:00:55 10° 246° (WSW) 1,577 5.1 -32.2°
